Location: Lombard
(41.8800°N, 88.0080°W)
Time: 13:24:00
(UTC-05:00)

A-11 Canister half - Pass Details

Date: 03 February 2023
Orbit: 1512 x 1687 km, 47.2° (Epoch: 20 March)

Event Time Altitude Azimuth Distance (km) Brightness Sun altitude
Rises 14:23:30 0° 283° (WNW) 4,776 11.9 23.6°
Reaches altitude 10° 14:26:41 10° 287° (WNW) 3,768 11.4 23.3°
Maximum altitude 14:36:09 66° 9° (N) 1,651 9.3 22.2°
Drops below altitude 10° 14:45:21 10° 91° (E) 3,673 10.7 21.1°
Sets 14:48:24 0° 95° (E) 4,650 11.2 20.7°
